Preview of NWS' New Version of Forecast
This preview is not operational and should not be used for support decisions.

Regional Weather Roundup (RWR)

Issued by National Weather Service (NWS)

                            
000
ASUS42 KTBW 201518
RWRFL 
FLORIDA REGIONAL WEATHER ROUNDUP
NATIONAL WEATHER SERVICE TAMPA BAY RUSKIN FL
1100 AM EDT SAT JUL 20 2019

NOTE: "FAIR" INDICATES FEW OR NO CLOUDS BELOW 12,000 FEET WITH NO
SIGNIFICANT WEATHER AND/OR OBSTRUCTIONS TO VISIBILITY.

FLZ001>010-012>015-112-114-115-201600-
PANHANDLE FLORIDA
  
CITY           SKY/WX    TMP DP  RH WIND       PRES   REMARKS
PENSACOLA      TSTM      75  75 100 SE14      30.11R VSB 1            
PENSACOLA NAS  LGT RAIN  78  74  87 E3        30.11R                  
MILTON NAS     TSTM      74  74 100 S16       30.13  VSB 3/4          
CRESTVIEW      FAIR      83  73  72 SW8       30.12R                  
DUKE FIELD     FAIR      81  73  76 S10       30.10S                  
VALPARAISO     LGT RAIN  77  73  88 W6        30.10R                  
MARY ESTHER    LGT RAIN  76  73  90 W7        30.10S                  
TRI COUNTY     PTSUNNY   81  76  84 S9        30.11S                  
PANAMA CITY    PTSUNNY   79  71  76 S5        30.10F                  
TYNDALL AFB    FAIR      79  73  83 SW6       30.09R                  
APALACHICOLA   FAIR      82  71  69 CALM      30.09S                  

STATION/POSITION SKY/WX   TEMP    WIND        PRES    WAVE   SWELL
                          AIR SEA DIR/SP/G            HT/PER HT/PER
                          (F)     (DEG/KT/KT) (MB)    (FT/S) (FT/S)
30.1N   87.6W              80 86  230/  8/ 10 1018.9R   2/ 4   2/10
29.2N   88.2W              77      10/ 12/ 14 1019.2
28.8N   86.0W                 86  250/ 10/ 14 1018.7R   1/ 7   2/ 7
PANAMA CITY BEAC           77 86  150/ 11/ 15 1019.8F
TOWER C                    81      60/  8/  9 1019.3F
28.5N   84.5W              83     110/ 10/ 12 1019.3R   2/ 4

$$
FLZ011-016>038-118-127-128-134-139-239-201600-
NORTH FLORIDA
  
CITY           SKY/WX    TMP DP  RH WIND       PRES   REMARKS
MARIANNA       FAIR      84  77  79 VRB6      30.09F                  
TALLAHASSEE    FAIR      85  76  74 VRB3      30.10S                  
PERRY          FAIR      85  75  71 CALM      30.12S                  
LIVE OAK       SUNNY     84  73  70 CALM      30.11F                  
CROSS CITY     FAIR      86  73  64 CALM      30.11S                  
LAKE CITY      FAIR      82  72  69 CALM      30.12F                  
GAINESVILLE    FAIR      85  74  69 SE5       30.14S                  
WILLISTON      FAIR      85  76  72 S6        30.12S HX  95           
PALATKA        FAIR      86  75  70 S5        30.13R HX  95           
MAYPORT NAS    FAIR      86  75  69 VRB6      30.11S HX  95           
JACKSONVILLE   FAIR      86  74  67 S3        30.10F                  
JAX NAS        FAIR      86  72  62 SE7       30.12S                  
JAX CECIL      MOSUNNY   91  75  59 S5        30.11F HX 102           
FERNANDINA BEA FAIR      85  76  75 SE8       30.11S HX  95           
ST AUGUSTINE   FAIR      85  77  77 E5        30.13R HX  95           
PALM COAST     SUNNY     86  73  66 SW6       30.11S                  

STATION/POSITION SKY/WX   TEMP    WIND        PRES    WAVE   SWELL
                          AIR SEA DIR/SP/G            HT/PER HT/PER
                          (F)     (DEG/KT/KT) (MB)    (FT/S) (FT/S)
SHELL POINT      NOT AVBL
KEATON BEACH               84     210/  2/  2 1019.5F
CEDAR KEY                  82     140/  7/  8 1019.8S
FERNANDINA                 89 85   80/  3/  5 1020.3F
30.7N   81.3W                 84                N/A     2/ 8
MAYPORT                    81 82   50/  6/  7 1020.0S
31.4N   80.9W              81 84  220/  6/  8 1019.4F   2/ 9   2/ 9
ST AUGUSTINE               81 76  110/  5/  6 1020.3R

$$
FLZ040-043>046-052-053-057-058-063-144-201600-
INTERIOR CENTRAL FLORIDA
  
CITY           SKY/WX    TMP DP  RH WIND       PRES   REMARKS
OCALA          FAIR      86  75  69 VRB6      30.13R HX  95           
LEESBURG       FAIR      86  76  71 SE6       30.14R HX  96           
SANFORD        FAIR      87  74  64 VRB6      30.12S HX  95           
ORLANDO EXEC   FAIR      88  73  61 S3        30.13R HX  95           
ORLANDO INTL   FAIR      87  74  64 SE7       30.13R HX  95           
KISSIMMEE      FAIR      86  76  71 S8        30.14R HX  96           
WINTER HAVEN   FAIR      88  73  61 SE8       30.13R HX  95           
LAKELAND       MOSUNNY   86  73  66 SE6       30.13R                  
SEBRING        FAIR      88  75  65 E5        30.11S HX  97           
OKEECHOBEE     FAIR      86  75  70 E3        30.09F HX  95           

$$
FLZ041-047-054-059-064-141-147-201600-
EAST CENTRAL FLORIDA
  
CITY           SKY/WX    TMP DP  RH WIND       PRES   REMARKS
ORMOND BEACH   SUNNY     86  75  70 S7        30.12R HX  95           
DAYTONA BEACH  PTSUNNY   87  77  72 VRB5      30.13R HX  99           
DELAND         FAIR      86  73  66 S7        30.12F                  
NEW SMYRNA BEA SUNNY     84  75  74 SE6       30.14R                  
JFK SPACE CTR  MOSUNNY   80  67  64 E5        30.12S                  
TITUSVILLE     PTSUNNY   84  82  94 CALM      30.13S HX 101           
CAPE CANAVERAL MOSUNNY   79  50  35 CALM      30.11F                  
PATRICK AFB    FAIR      79  76  91 CALM      30.12F                  
MELBOURNE      LGT RAIN  81  76  84 CALM      30.11F                  
VERO BEACH     FAIR      87  76  69 NE9       30.11F HX  97           
FT PIERCE      PTSUNNY   86  75  69 NE6       30.10S HX  95           
STUART         MOSUNNY   86  75  70 SE12      30.11S HX  95           

STATION/POSITION SKY/WX   TEMP    WIND        PRES    WAVE   SWELL
                          AIR SEA DIR/SP/G            HT/PER HT/PER
                          (F)     (DEG/KT/KT) (MB)    (FT/S) (FT/S)
28.5N   80.2W              82 84  260/  8/ 12 1020.0F   1/ 9   2/ 9
28.9N   78.5W              85 86  170/  8/ 10   N/A     3/ 9   3/ 9
TRIDENT PIER               77 82   10/  2/  2 1021.7F
28.4N   80.5W                 81                N/A     1/ 9
27.5N   80.2W                 83                N/A     2/ 8

$$
FLZ050-056-061-142-242-148-248-149-249-151-251-155-255-
160-260-201600-
WEST CENTRAL FLORIDA
  
CITY           SKY/WX    TMP DP  RH WIND       PRES   REMARKS
CRYSTAL RIVER  FAIR      88  73  62 SE3       30.11S HX  96           
INVERNESS      FAIR      86  81  84 S5        30.12S HX 102           
BROOKSVILLE    FAIR      88  74  63 SE6       30.12S HX  96           
CLEARWATER AIR FAIR      86  73  66 SE3       30.10S                  
ST PETE CLEARW FAIR      86  75  69 SE8       30.10R HX  95           
TAMPA INTL     FAIR      86  75  69 VRB6      30.11R HX  95           
TAMPA EXEC     FAIR      86  77  74 S6        30.12S HX  97           
PLANT CITY     FAIR     N/A N/A N/A MISG      30.14R                  
MACDILL AFB    FAIR      86  76  71 S6        30.11R HX  96           
PETER O KNIGHT CLOUDY    86  77  74 S3        30.11S HX  97           
ST PETERSBURG  FAIR      85  76  74 SE8       30.09R                  
SARASOTA       FAIR      87  74  64 SE8       30.08R HX  95           
VENICE         FAIR      88  75  66 E7        30.10S HX  97           

STATION/POSITION SKY/WX   TEMP    WIND        PRES    WAVE   SWELL
                          AIR SEA DIR/SP/G            HT/PER HT/PER
                          (F)     (DEG/KT/KT) (MB)    (FT/S) (FT/S)
27.3N   84.2W                 87                N/A     2/ 4
CLEARWATER BEACH           85 87  140/  5/  7 1019.5R
MIDDLE TAMPA BAY           84     170/  7/  8 1019.5R
VENICE                     85 86  180/  6/  7 1019.2R

$$
FLZ066-069-070-075>078-162-262-165-265-201600-
SOUTHWEST FLORIDA AND KEYS
  
CITY           SKY/WX    TMP DP  RH WIND       PRES   REMARKS
PUNTA GORDA    FAIR      87  75  67 E6        30.11R HX  96           
FT MYERS       FAIR      87  76  69 VRB6      30.08R HX  97           
SOUTHWEST INTL FAIR      87  76  69 SE10      30.08S HX  97           
MARCO ISLAND   FAIR      88  77  69 MISG      30.08  HX 100           
IMMOKALEE      FAIR      90  75  62 E5        30.06S HX 100           
MARATHON       FAIR      90  76  63 E6        30.05S HX 101           
KEY WEST NAS   FAIR      91  75  59 SE8       30.06R HX 101           
KEY WEST INTL  FAIR      88  76  67 SE9       30.06R HX  99           

STATION/POSITION SKY/WX   TEMP    WIND        PRES    WAVE   SWELL
                          AIR SEA DIR/SP/G            HT/PER HT/PER
                          (F)     (DEG/KT/KT) (MB)    (FT/S) (FT/S)
NAPLES                     87 86              1018.3R
26.0N   85.6W              85 85  110/  8/  8 1018.4R   2/ 5   2/ 5
DRY TORTUGAS               85     110/ 10/ 11 1018.1R
SAND KEY                   85     110/ 10/ 11 1016.8
SOMBRERO KEY               85     110/  8/ 10 1017.9
LONG KEY                   86                 1017.3

$$
FLZ067-068-071>074-168-172>174-201600-
SOUTHEAST FLORIDA 
  
CITY           SKY/WX    TMP DP  RH WIND       PRES   REMARKS
W PALM BEACH   PTSUNNY   87  74  64 SE13      30.09S HX  95           
BOCA RATON     MOSUNNY   86  75  70 SE5       30.09S HX  95           
FT LAUDER-EXEC FAIR      85  74  69 E10       30.08S                  
FT LAUDERDALE  PTSUNNY   86  73  65 E14       30.08R                  
POMPANO BEACH  FAIR      87  73  62 E12       30.09R                  
PEMBROKE PINES FAIR      90  73  57 E14       30.09S HX  98           
OPA LOCKA      PTSUNNY   87  76  69 E13       30.08S HX  97           
MIAMI          PTSUNNY   84  72  67 SE16      30.09R THUNDER          
WEST KENDALL     N/A    N/A N/A N/A MISG      30.08R                  
HOMESTEAD      FAIR      88  74  63 E8        30.06R HX  97           

STATION/POSITION SKY/WX   TEMP    WIND        PRES    WAVE   SWELL
                          AIR SEA DIR/SP/G            HT/PER HT/PER
                          (F)     (DEG/KT/KT) (MB)    (FT/S) (FT/S)
VIRGINIA KEY               80 88   60/  8/ 14 1018.5R
LAKE WORTH                 83 84  160/  9/ 10 1020.2R
FOWEY ROCKS                83 85  110/ 11/ 12 1018.9R
SETTLEMENT POINT           85     110/ 10/ 12 1019.4S

$$